Back to catalog

STARLINK-30294

AliveCommunicationsVLEO
NORAD 57651·PAYLOAD·🇺🇸 United States

Launched Aug 17, 2023 from Cape Canaveral Space Force Station

Loading…

Next Passes (next 24 hours)

TLE

FreshSource: CelesTrak SupGP

Epoch: Sep 14, 2026, 21:37 UTC

1 57651C 23122V   26257.90118056  .00029915  00000+0  10836-2 0  2578
2 57651  43.0029  92.6270 0002135 268.3178 242.1720 15.27560711    10

Track STARLINK-30294 in real time with AllMySat

Download on the App Store